<?xml version="1.0" encoding="UTF-8"?>
<gpx xmlns="http://www.topografix.com/GPX/1/1" xmlns:gpsies="http://www.gpsies.com/GPX/1/0" creator="GPSies http://www.gpsies.com - dorot1" version="1.1" xmlns:xsi="http://www.w3.org/2001/XMLSchema-instance" xsi:schemaLocation="http://www.topografix.com/GPX/1/1 http://www.topografix.com/GPX/1/1/gpx.xsd http://www.gpsies.com/GPX/1/0 http://www.gpsies.com/gpsies.xsd">
  <metadata>
    <name>dorot1</name>
    <author>
      <name>igor968</name>
      <link href="http://www.gpsies.com/mapUser.do?username=igor968">
        <text>igor968 on GPSies.com</text>
        <type>GPSiesUserOnWeb</type>
      </link>
    </author>
    <link href="http://www.gpsies.com/map.do?fileId=uohvixuphfxerhgx">
      <text>dorot1 on GPSies.com</text>
      <type>trackOnWeb</type>
    </link>
    <time>2016-02-25T15:30:39Z</time>
    <extensions>
      <gpsies:property>round trip</gpsies:property>
      <gpsies:trackLengthMeter>14740.495519638052</gpsies:trackLengthMeter>
      <gpsies:totalAscentMeter>109.0</gpsies:totalAscentMeter>
      <gpsies:totalDescentMeter>109.0</gpsies:totalDescentMeter>
      <gpsies:minHeightMeter>93.0</gpsies:minHeightMeter>
      <gpsies:maxHeightMeter>165.0</gpsies:maxHeightMeter>
    </extensions>
  </metadata>
  <trk>
    <name>dorot1 on GPSies.com</name>
    <link href="http://www.gpsies.com/map.do?fileId=uohvixuphfxerhgx">
      <type>trackOnWeb</type>
    </link>
    <link href="http://www.gpsies.com/charts/uo/map/uohvixuphfxerhgx_map.png">
      <type>elevationChartUrlMap</type>
    </link>
    <link href="http://www.gpsies.com/charts/uo/mapThumb/uohvixuphfxerhgx_mapThumb.png">
      <type>elevationChartUrlMapThumb</type>
    </link>
    <link href="http://www.gpsies.com/charts/uo/tab/uohvixuphfxerhgx_tab.png">
      <type>elevationChartUrlTab</type>
    </link>
    <trkseg>
      <trkpt lat="31.50995000" lon="34.64837370">
        <ele>96.000000</ele>
        <time>2010-01-01T00:00:00Z</time>
      </trkpt>
      <trkpt lat="31.50957490" lon="34.64834690">
        <ele>96.000000</ele>
        <time>2010-01-01T00:00:15Z</time>
      </trkpt>
      <trkpt lat="31.50925020" lon="34.64833610">
        <ele>96.000000</ele>
        <time>2010-01-01T00:00:28Z</time>
      </trkpt>
      <trkpt lat="31.50912000" lon="34.64833000">
        <ele>96.000000</ele>
        <time>2010-01-01T00:00:33Z</time>
      </trkpt>
      <trkpt lat="31.50882000" lon="34.64855000">
        <ele>96.000000</ele>
        <time>2010-01-01T00:00:47Z</time>
      </trkpt>
      <trkpt lat="31.50873000" lon="34.64864000">
        <ele>95.000000</ele>
        <time>2010-01-01T00:00:52Z</time>
      </trkpt>
      <trkpt lat="31.50855000" lon="34.64922000">
        <ele>96.000000</ele>
        <time>2010-01-01T00:01:13Z</time>
      </trkpt>
      <trkpt lat="31.50861000" lon="34.64978000">
        <ele>99.000000</ele>
        <time>2010-01-01T00:01:32Z</time>
      </trkpt>
      <trkpt lat="31.50859000" lon="34.64997000">
        <ele>99.000000</ele>
        <time>2010-01-01T00:01:39Z</time>
      </trkpt>
      <trkpt lat="31.50857000" lon="34.65017000">
        <ele>99.000000</ele>
        <time>2010-01-01T00:01:45Z</time>
      </trkpt>
      <trkpt lat="31.50770000" lon="34.65097000">
        <ele>100.00000</ele>
        <time>2010-01-01T00:02:30Z</time>
      </trkpt>
      <trkpt lat="31.50749000" lon="34.65100000">
        <ele>99.000000</ele>
        <time>2010-01-01T00:02:38Z</time>
      </trkpt>
      <trkpt lat="31.50719000" lon="34.65085000">
        <ele>100.00000</ele>
        <time>2010-01-01T00:02:51Z</time>
      </trkpt>
      <trkpt lat="31.50718000" lon="34.65086000">
        <ele>100.00000</ele>
        <time>2010-01-01T00:02:52Z</time>
      </trkpt>
      <trkpt lat="31.50718000" lon="34.65085000">
        <ele>100.00000</ele>
        <time>2010-01-01T00:02:52Z</time>
      </trkpt>
      <trkpt lat="31.50697000" lon="34.65084000">
        <ele>99.000000</ele>
        <time>2010-01-01T00:03:00Z</time>
      </trkpt>
      <trkpt lat="31.50668000" lon="34.65078000">
        <ele>100.00000</ele>
        <time>2010-01-01T00:03:12Z</time>
      </trkpt>
      <trkpt lat="31.50634000" lon="34.65084000">
        <ele>97.000000</ele>
        <time>2010-01-01T00:03:26Z</time>
      </trkpt>
      <trkpt lat="31.50589000" lon="34.65077000">
        <ele>96.000000</ele>
        <time>2010-01-01T00:03:44Z</time>
      </trkpt>
      <trkpt lat="31.50527000" lon="34.65058000">
        <ele>95.000000</ele>
        <time>2010-01-01T00:04:10Z</time>
      </trkpt>
      <trkpt lat="31.50520000" lon="34.65045000">
        <ele>95.000000</ele>
        <time>2010-01-01T00:04:15Z</time>
      </trkpt>
      <trkpt lat="31.50517000" lon="34.65032000">
        <ele>95.000000</ele>
        <time>2010-01-01T00:04:20Z</time>
      </trkpt>
      <trkpt lat="31.50509000" lon="34.65025000">
        <ele>96.000000</ele>
        <time>2010-01-01T00:04:24Z</time>
      </trkpt>
      <trkpt lat="31.50497000" lon="34.65026000">
        <ele>97.000000</ele>
        <time>2010-01-01T00:04:28Z</time>
      </trkpt>
      <trkpt lat="31.50488000" lon="34.65030000">
        <ele>97.000000</ele>
        <time>2010-01-01T00:04:32Z</time>
      </trkpt>
      <trkpt lat="31.50453000" lon="34.65012000">
        <ele>101.00000</ele>
        <time>2010-01-01T00:04:48Z</time>
      </trkpt>
      <trkpt lat="31.50441000" lon="34.65008000">
        <ele>102.00000</ele>
        <time>2010-01-01T00:04:53Z</time>
      </trkpt>
      <trkpt lat="31.50408000" lon="34.65033000">
        <ele>100.00000</ele>
        <time>2010-01-01T00:05:08Z</time>
      </trkpt>
      <trkpt lat="31.50374000" lon="34.65034000">
        <ele>100.00000</ele>
        <time>2010-01-01T00:05:22Z</time>
      </trkpt>
      <trkpt lat="31.50343000" lon="34.65060000">
        <ele>99.000000</ele>
        <time>2010-01-01T00:05:37Z</time>
      </trkpt>
      <trkpt lat="31.50320000" lon="34.65066000">
        <ele>101.00000</ele>
        <time>2010-01-01T00:05:47Z</time>
      </trkpt>
      <trkpt lat="31.50294000" lon="34.65078000">
        <ele>102.00000</ele>
        <time>2010-01-01T00:05:58Z</time>
      </trkpt>
      <trkpt lat="31.50288000" lon="34.65083000">
        <ele>101.00000</ele>
        <time>2010-01-01T00:06:01Z</time>
      </trkpt>
      <trkpt lat="31.50267000" lon="34.65077000">
        <ele>103.00000</ele>
        <time>2010-01-01T00:06:09Z</time>
      </trkpt>
      <trkpt lat="31.50242000" lon="34.65084000">
        <ele>104.00000</ele>
        <time>2010-01-01T00:06:20Z</time>
      </trkpt>
      <trkpt lat="31.50221000" lon="34.65100000">
        <ele>103.00000</ele>
        <time>2010-01-01T00:06:30Z</time>
      </trkpt>
      <trkpt lat="31.50209000" lon="34.65122000">
        <ele>104.00000</ele>
        <time>2010-01-01T00:06:39Z</time>
      </trkpt>
      <trkpt lat="31.50202000" lon="34.65155000">
        <ele>103.00000</ele>
        <time>2010-01-01T00:06:50Z</time>
      </trkpt>
      <trkpt lat="31.50200000" lon="34.65183000">
        <ele>103.00000</ele>
        <time>2010-01-01T00:07:00Z</time>
      </trkpt>
      <trkpt lat="31.50206000" lon="34.65199000">
        <ele>102.00000</ele>
        <time>2010-01-01T00:07:06Z</time>
      </trkpt>
      <trkpt lat="31.50222000" lon="34.65225000">
        <ele>101.00000</ele>
        <time>2010-01-01T00:07:17Z</time>
      </trkpt>
      <trkpt lat="31.50252000" lon="34.65294000">
        <ele>101.00000</ele>
        <time>2010-01-01T00:07:43Z</time>
      </trkpt>
      <trkpt lat="31.50271000" lon="34.65318000">
        <ele>101.00000</ele>
        <time>2010-01-01T00:07:54Z</time>
      </trkpt>
      <trkpt lat="31.50335000" lon="34.65349000">
        <ele>102.00000</ele>
        <time>2010-01-01T00:08:22Z</time>
      </trkpt>
      <trkpt lat="31.50342000" lon="34.65356000">
        <ele>102.00000</ele>
        <time>2010-01-01T00:08:26Z</time>
      </trkpt>
      <trkpt lat="31.50368000" lon="34.65358000">
        <ele>102.00000</ele>
        <time>2010-01-01T00:08:36Z</time>
      </trkpt>
      <trkpt lat="31.50374000" lon="34.65361000">
        <ele>102.00000</ele>
        <time>2010-01-01T00:08:39Z</time>
      </trkpt>
      <trkpt lat="31.50375000" lon="34.65368000">
        <ele>101.00000</ele>
        <time>2010-01-01T00:08:41Z</time>
      </trkpt>
      <trkpt lat="31.50375000" lon="34.65390000">
        <ele>101.00000</ele>
        <time>2010-01-01T00:08:49Z</time>
      </trkpt>
      <trkpt lat="31.50380000" lon="34.65414000">
        <ele>101.00000</ele>
        <time>2010-01-01T00:08:57Z</time>
      </trkpt>
      <trkpt lat="31.50376000" lon="34.65480000">
        <ele>102.00000</ele>
        <time>2010-01-01T00:09:20Z</time>
      </trkpt>
      <trkpt lat="31.50376000" lon="34.65479000">
        <ele>102.00000</ele>
        <time>2010-01-01T00:09:20Z</time>
      </trkpt>
      <trkpt lat="31.50382000" lon="34.65500000">
        <ele>102.00000</ele>
        <time>2010-01-01T00:09:28Z</time>
      </trkpt>
      <trkpt lat="31.50395000" lon="34.65521000">
        <ele>102.00000</ele>
        <time>2010-01-01T00:09:37Z</time>
      </trkpt>
      <trkpt lat="31.50405000" lon="34.65604000">
        <ele>104.00000</ele>
        <time>2010-01-01T00:10:05Z</time>
      </trkpt>
      <trkpt lat="31.50418000" lon="34.65653000">
        <ele>106.00000</ele>
        <time>2010-01-01T00:10:23Z</time>
      </trkpt>
      <trkpt lat="31.50408000" lon="34.65696000">
        <ele>107.00000</ele>
        <time>2010-01-01T00:10:38Z</time>
      </trkpt>
      <trkpt lat="31.50381000" lon="34.65708000">
        <ele>106.00000</ele>
        <time>2010-01-01T00:10:49Z</time>
      </trkpt>
      <trkpt lat="31.50362000" lon="34.65739000">
        <ele>106.00000</ele>
        <time>2010-01-01T00:11:02Z</time>
      </trkpt>
      <trkpt lat="31.50347000" lon="34.65809000">
        <ele>103.00000</ele>
        <time>2010-01-01T00:11:27Z</time>
      </trkpt>
      <trkpt lat="31.50349000" lon="34.65838000">
        <ele>103.00000</ele>
        <time>2010-01-01T00:11:37Z</time>
      </trkpt>
      <trkpt lat="31.50354000" lon="34.65863000">
        <ele>104.00000</ele>
        <time>2010-01-01T00:11:46Z</time>
      </trkpt>
      <trkpt lat="31.50357000" lon="34.65892000">
        <ele>104.00000</ele>
        <time>2010-01-01T00:11:56Z</time>
      </trkpt>
      <trkpt lat="31.50369000" lon="34.65949000">
        <ele>106.00000</ele>
        <time>2010-01-01T00:12:16Z</time>
      </trkpt>
      <trkpt lat="31.50368000" lon="34.66001000">
        <ele>106.00000</ele>
        <time>2010-01-01T00:12:34Z</time>
      </trkpt>
      <trkpt lat="31.50371000" lon="34.66064000">
        <ele>105.00000</ele>
        <time>2010-01-01T00:12:55Z</time>
      </trkpt>
      <trkpt lat="31.50371000" lon="34.66063000">
        <ele>105.00000</ele>
        <time>2010-01-01T00:12:55Z</time>
      </trkpt>
      <trkpt lat="31.50392000" lon="34.66143000">
        <ele>108.00000</ele>
        <time>2010-01-01T00:13:24Z</time>
      </trkpt>
      <trkpt lat="31.50402000" lon="34.66180000">
        <ele>107.00000</ele>
        <time>2010-01-01T00:13:37Z</time>
      </trkpt>
      <trkpt lat="31.50346000" lon="34.66282000">
        <ele>108.00000</ele>
        <time>2010-01-01T00:14:19Z</time>
      </trkpt>
      <trkpt lat="31.50329000" lon="34.66296000">
        <ele>109.00000</ele>
        <time>2010-01-01T00:14:27Z</time>
      </trkpt>
      <trkpt lat="31.50313000" lon="34.66343000">
        <ele>110.00000</ele>
        <time>2010-01-01T00:14:44Z</time>
      </trkpt>
      <trkpt lat="31.50292000" lon="34.66372000">
        <ele>110.00000</ele>
        <time>2010-01-01T00:14:57Z</time>
      </trkpt>
      <trkpt lat="31.50268000" lon="34.66385000">
        <ele>110.00000</ele>
        <time>2010-01-01T00:15:08Z</time>
      </trkpt>
      <trkpt lat="31.50244000" lon="34.66378000">
        <ele>110.00000</ele>
        <time>2010-01-01T00:15:18Z</time>
      </trkpt>
      <trkpt lat="31.50188000" lon="34.66368000">
        <ele>109.00000</ele>
        <time>2010-01-01T00:15:40Z</time>
      </trkpt>
      <trkpt lat="31.50157000" lon="34.66376000">
        <ele>109.00000</ele>
        <time>2010-01-01T00:15:53Z</time>
      </trkpt>
      <trkpt lat="31.50136000" lon="34.66431000">
        <ele>111.00000</ele>
        <time>2010-01-01T00:16:14Z</time>
      </trkpt>
      <trkpt lat="31.50112000" lon="34.66473000">
        <ele>112.00000</ele>
        <time>2010-01-01T00:16:31Z</time>
      </trkpt>
      <trkpt lat="31.50078000" lon="34.66494000">
        <ele>113.00000</ele>
        <time>2010-01-01T00:16:46Z</time>
      </trkpt>
      <trkpt lat="31.50037000" lon="34.66510000">
        <ele>114.00000</ele>
        <time>2010-01-01T00:17:04Z</time>
      </trkpt>
      <trkpt lat="31.50001000" lon="34.66527000">
        <ele>114.00000</ele>
        <time>2010-01-01T00:17:19Z</time>
      </trkpt>
      <trkpt lat="31.49957000" lon="34.66564000">
        <ele>112.00000</ele>
        <time>2010-01-01T00:17:41Z</time>
      </trkpt>
      <trkpt lat="31.49919000" lon="34.66599000">
        <ele>114.00000</ele>
        <time>2010-01-01T00:18:00Z</time>
      </trkpt>
      <trkpt lat="31.49901000" lon="34.66628000">
        <ele>114.00000</ele>
        <time>2010-01-01T00:18:12Z</time>
      </trkpt>
      <trkpt lat="31.49893000" lon="34.66656000">
        <ele>114.00000</ele>
        <time>2010-01-01T00:18:22Z</time>
      </trkpt>
      <trkpt lat="31.49873000" lon="34.66683000">
        <ele>115.00000</ele>
        <time>2010-01-01T00:18:35Z</time>
      </trkpt>
      <trkpt lat="31.49850000" lon="34.66737000">
        <ele>116.00000</ele>
        <time>2010-01-01T00:18:55Z</time>
      </trkpt>
      <trkpt lat="31.49839000" lon="34.66751000">
        <ele>117.00000</ele>
        <time>2010-01-01T00:19:02Z</time>
      </trkpt>
      <trkpt lat="31.49804000" lon="34.66795000">
        <ele>116.00000</ele>
        <time>2010-01-01T00:19:22Z</time>
      </trkpt>
      <trkpt lat="31.49769000" lon="34.66867000">
        <ele>116.00000</ele>
        <time>2010-01-01T00:19:51Z</time>
      </trkpt>
      <trkpt lat="31.49740000" lon="34.66917000">
        <ele>115.00000</ele>
        <time>2010-01-01T00:20:11Z</time>
      </trkpt>
      <trkpt lat="31.49706000" lon="34.66966000">
        <ele>116.00000</ele>
        <time>2010-01-01T00:20:33Z</time>
      </trkpt>
      <trkpt lat="31.49685000" lon="34.66973000">
        <ele>115.00000</ele>
        <time>2010-01-01T00:20:42Z</time>
      </trkpt>
      <trkpt lat="31.49660000" lon="34.66973000">
        <ele>114.00000</ele>
        <time>2010-01-01T00:20:52Z</time>
      </trkpt>
      <trkpt lat="31.49637000" lon="34.66967000">
        <ele>114.00000</ele>
        <time>2010-01-01T00:21:01Z</time>
      </trkpt>
      <trkpt lat="31.49608000" lon="34.66964000">
        <ele>115.00000</ele>
        <time>2010-01-01T00:21:13Z</time>
      </trkpt>
      <trkpt lat="31.49583000" lon="34.66978000">
        <ele>118.00000</ele>
        <time>2010-01-01T00:21:24Z</time>
      </trkpt>
      <trkpt lat="31.49560000" lon="34.67001000">
        <ele>118.00000</ele>
        <time>2010-01-01T00:21:36Z</time>
      </trkpt>
      <trkpt lat="31.49534000" lon="34.67021000">
        <ele>118.00000</ele>
        <time>2010-01-01T00:21:48Z</time>
      </trkpt>
      <trkpt lat="31.49523000" lon="34.67053000">
        <ele>118.00000</ele>
        <time>2010-01-01T00:22:00Z</time>
      </trkpt>
      <trkpt lat="31.49512000" lon="34.67069000">
        <ele>121.00000</ele>
        <time>2010-01-01T00:22:07Z</time>
      </trkpt>
      <trkpt lat="31.49488000" lon="34.67098000">
        <ele>122.00000</ele>
        <time>2010-01-01T00:22:21Z</time>
      </trkpt>
      <trkpt lat="31.49483000" lon="34.67138000">
        <ele>120.00000</ele>
        <time>2010-01-01T00:22:35Z</time>
      </trkpt>
      <trkpt lat="31.49463000" lon="34.67219000">
        <ele>120.00000</ele>
        <time>2010-01-01T00:23:03Z</time>
      </trkpt>
      <trkpt lat="31.49469000" lon="34.67263000">
        <ele>118.00000</ele>
        <time>2010-01-01T00:23:19Z</time>
      </trkpt>
      <trkpt lat="31.49469000" lon="34.67262000">
        <ele>118.00000</ele>
        <time>2010-01-01T00:23:19Z</time>
      </trkpt>
      <trkpt lat="31.49469000" lon="34.67266000">
        <ele>117.00000</ele>
        <time>2010-01-01T00:23:20Z</time>
      </trkpt>
      <trkpt lat="31.49465000" lon="34.67290000">
        <ele>117.00000</ele>
        <time>2010-01-01T00:23:29Z</time>
      </trkpt>
      <trkpt lat="31.49458000" lon="34.67315000">
        <ele>118.00000</ele>
        <time>2010-01-01T00:23:38Z</time>
      </trkpt>
      <trkpt lat="31.49459000" lon="34.67341000">
        <ele>120.00000</ele>
        <time>2010-01-01T00:23:47Z</time>
      </trkpt>
      <trkpt lat="31.49450000" lon="34.67383000">
        <ele>125.00000</ele>
        <time>2010-01-01T00:24:01Z</time>
      </trkpt>
      <trkpt lat="31.49445000" lon="34.67401000">
        <ele>127.00000</ele>
        <time>2010-01-01T00:24:08Z</time>
      </trkpt>
      <trkpt lat="31.49447000" lon="34.67417000">
        <ele>128.00000</ele>
        <time>2010-01-01T00:24:13Z</time>
      </trkpt>
      <trkpt lat="31.49443000" lon="34.67446000">
        <ele>128.00000</ele>
        <time>2010-01-01T00:24:23Z</time>
      </trkpt>
      <trkpt lat="31.49420000" lon="34.67530000">
        <ele>127.00000</ele>
        <time>2010-01-01T00:24:53Z</time>
      </trkpt>
      <trkpt lat="31.49391000" lon="34.67530000">
        <ele>123.00000</ele>
        <time>2010-01-01T00:25:05Z</time>
      </trkpt>
      <trkpt lat="31.49375000" lon="34.67557000">
        <ele>122.00000</ele>
        <time>2010-01-01T00:25:16Z</time>
      </trkpt>
      <trkpt lat="31.49348000" lon="34.67625000">
        <ele>123.00000</ele>
        <time>2010-01-01T00:25:42Z</time>
      </trkpt>
      <trkpt lat="31.49345000" lon="34.67653000">
        <ele>124.00000</ele>
        <time>2010-01-01T00:25:52Z</time>
      </trkpt>
      <trkpt lat="31.49342000" lon="34.67674000">
        <ele>125.00000</ele>
        <time>2010-01-01T00:25:59Z</time>
      </trkpt>
      <trkpt lat="31.49335000" lon="34.67685000">
        <ele>125.00000</ele>
        <time>2010-01-01T00:26:03Z</time>
      </trkpt>
      <trkpt lat="31.49325000" lon="34.67705000">
        <ele>124.00000</ele>
        <time>2010-01-01T00:26:11Z</time>
      </trkpt>
      <trkpt lat="31.49315000" lon="34.67738000">
        <ele>125.00000</ele>
        <time>2010-01-01T00:26:23Z</time>
      </trkpt>
      <trkpt lat="31.49314000" lon="34.67762000">
        <ele>127.00000</ele>
        <time>2010-01-01T00:26:32Z</time>
      </trkpt>
      <trkpt lat="31.49323000" lon="34.67785000">
        <ele>129.00000</ele>
        <time>2010-01-01T00:26:40Z</time>
      </trkpt>
      <trkpt lat="31.49322000" lon="34.67801000">
        <ele>129.00000</ele>
        <time>2010-01-01T00:26:46Z</time>
      </trkpt>
      <trkpt lat="31.49317000" lon="34.67812000">
        <ele>129.00000</ele>
        <time>2010-01-01T00:26:50Z</time>
      </trkpt>
      <trkpt lat="31.49315000" lon="34.67832000">
        <ele>130.00000</ele>
        <time>2010-01-01T00:26:57Z</time>
      </trkpt>
      <trkpt lat="31.49317000" lon="34.67862000">
        <ele>129.00000</ele>
        <time>2010-01-01T00:27:07Z</time>
      </trkpt>
      <trkpt lat="31.49322000" lon="34.67894000">
        <ele>128.00000</ele>
        <time>2010-01-01T00:27:18Z</time>
      </trkpt>
      <trkpt lat="31.49330000" lon="34.67913000">
        <ele>129.00000</ele>
        <time>2010-01-01T00:27:25Z</time>
      </trkpt>
      <trkpt lat="31.49366000" lon="34.67961000">
        <ele>132.00000</ele>
        <time>2010-01-01T00:27:47Z</time>
      </trkpt>
      <trkpt lat="31.49370000" lon="34.67978000">
        <ele>133.00000</ele>
        <time>2010-01-01T00:27:53Z</time>
      </trkpt>
      <trkpt lat="31.49370000" lon="34.67977000">
        <ele>133.00000</ele>
        <time>2010-01-01T00:27:54Z</time>
      </trkpt>
      <trkpt lat="31.49368000" lon="34.67987000">
        <ele>134.00000</ele>
        <time>2010-01-01T00:27:57Z</time>
      </trkpt>
      <trkpt lat="31.49347000" lon="34.67988000">
        <ele>136.00000</ele>
        <time>2010-01-01T00:28:06Z</time>
      </trkpt>
      <trkpt lat="31.49331000" lon="34.67978000">
        <ele>135.00000</ele>
        <time>2010-01-01T00:28:13Z</time>
      </trkpt>
      <trkpt lat="31.49307000" lon="34.67978000">
        <ele>134.00000</ele>
        <time>2010-01-01T00:28:22Z</time>
      </trkpt>
      <trkpt lat="31.49288000" lon="34.67982000">
        <ele>134.00000</ele>
        <time>2010-01-01T00:28:30Z</time>
      </trkpt>
      <trkpt lat="31.49278000" lon="34.67991000">
        <ele>135.00000</ele>
        <time>2010-01-01T00:28:35Z</time>
      </trkpt>
      <trkpt lat="31.49269000" lon="34.68009000">
        <ele>136.00000</ele>
        <time>2010-01-01T00:28:42Z</time>
      </trkpt>
      <trkpt lat="31.49255000" lon="34.68028000">
        <ele>135.00000</ele>
        <time>2010-01-01T00:28:51Z</time>
      </trkpt>
      <trkpt lat="31.49242000" lon="34.68063000">
        <ele>136.00000</ele>
        <time>2010-01-01T00:29:04Z</time>
      </trkpt>
      <trkpt lat="31.49230000" lon="34.68074000">
        <ele>136.00000</ele>
        <time>2010-01-01T00:29:10Z</time>
      </trkpt>
      <trkpt lat="31.49224000" lon="34.68083000">
        <ele>137.00000</ele>
        <time>2010-01-01T00:29:14Z</time>
      </trkpt>
      <trkpt lat="31.49216000" lon="34.68092000">
        <ele>136.00000</ele>
        <time>2010-01-01T00:29:18Z</time>
      </trkpt>
      <trkpt lat="31.49208000" lon="34.68117000">
        <ele>136.00000</ele>
        <time>2010-01-01T00:29:27Z</time>
      </trkpt>
      <trkpt lat="31.49208000" lon="34.68128000">
        <ele>136.00000</ele>
        <time>2010-01-01T00:29:31Z</time>
      </trkpt>
      <trkpt lat="31.49222000" lon="34.68143000">
        <ele>136.00000</ele>
        <time>2010-01-01T00:29:39Z</time>
      </trkpt>
      <trkpt lat="31.49235000" lon="34.68151000">
        <ele>137.00000</ele>
        <time>2010-01-01T00:29:45Z</time>
      </trkpt>
      <trkpt lat="31.49296000" lon="34.68227000">
        <ele>139.00000</ele>
        <time>2010-01-01T00:30:20Z</time>
      </trkpt>
      <trkpt lat="31.49307000" lon="34.68239000">
        <ele>140.00000</ele>
        <time>2010-01-01T00:30:26Z</time>
      </trkpt>
      <trkpt lat="31.49313000" lon="34.68252000">
        <ele>140.00000</ele>
        <time>2010-01-01T00:30:31Z</time>
      </trkpt>
      <trkpt lat="31.49338000" lon="34.68268000">
        <ele>143.00000</ele>
        <time>2010-01-01T00:30:43Z</time>
      </trkpt>
      <trkpt lat="31.49348000" lon="34.68281000">
        <ele>144.00000</ele>
        <time>2010-01-01T00:30:49Z</time>
      </trkpt>
      <trkpt lat="31.49353000" lon="34.68301000">
        <ele>145.00000</ele>
        <time>2010-01-01T00:30:56Z</time>
      </trkpt>
      <trkpt lat="31.49349000" lon="34.68312000">
        <ele>145.00000</ele>
        <time>2010-01-01T00:31:00Z</time>
      </trkpt>
      <trkpt lat="31.49339000" lon="34.68318000">
        <ele>145.00000</ele>
        <time>2010-01-01T00:31:04Z</time>
      </trkpt>
      <trkpt lat="31.49321000" lon="34.68320000">
        <ele>144.00000</ele>
        <time>2010-01-01T00:31:12Z</time>
      </trkpt>
      <trkpt lat="31.49302000" lon="34.68319000">
        <ele>144.00000</ele>
        <time>2010-01-01T00:31:19Z</time>
      </trkpt>
      <trkpt lat="31.49287000" lon="34.68316000">
        <ele>144.00000</ele>
        <time>2010-01-01T00:31:25Z</time>
      </trkpt>
      <trkpt lat="31.49277000" lon="34.68300000">
        <ele>143.00000</ele>
        <time>2010-01-01T00:31:32Z</time>
      </trkpt>
      <trkpt lat="31.49276000" lon="34.68300000">
        <ele>143.00000</ele>
        <time>2010-01-01T00:31:33Z</time>
      </trkpt>
      <trkpt lat="31.49271000" lon="34.68298000">
        <ele>143.00000</ele>
        <time>2010-01-01T00:31:35Z</time>
      </trkpt>
      <trkpt lat="31.49268000" lon="34.68303000">
        <ele>144.00000</ele>
        <time>2010-01-01T00:31:37Z</time>
      </trkpt>
      <trkpt lat="31.49267000" lon="34.68310000">
        <ele>144.00000</ele>
        <time>2010-01-01T00:31:39Z</time>
      </trkpt>
      <trkpt lat="31.49269000" lon="34.68323000">
        <ele>145.00000</ele>
        <time>2010-01-01T00:31:44Z</time>
      </trkpt>
      <trkpt lat="31.49263000" lon="34.68339000">
        <ele>146.00000</ele>
        <time>2010-01-01T00:31:50Z</time>
      </trkpt>
      <trkpt lat="31.49251000" lon="34.68341000">
        <ele>146.00000</ele>
        <time>2010-01-01T00:31:54Z</time>
      </trkpt>
      <trkpt lat="31.49244000" lon="34.68338000">
        <ele>145.00000</ele>
        <time>2010-01-01T00:31:57Z</time>
      </trkpt>
      <trkpt lat="31.49236000" lon="34.68327000">
        <ele>145.00000</ele>
        <time>2010-01-01T00:32:02Z</time>
      </trkpt>
      <trkpt lat="31.49227000" lon="34.68319000">
        <ele>145.00000</ele>
        <time>2010-01-01T00:32:07Z</time>
      </trkpt>
      <trkpt lat="31.49208000" lon="34.68315000">
        <ele>144.00000</ele>
        <time>2010-01-01T00:32:15Z</time>
      </trkpt>
      <trkpt lat="31.49196000" lon="34.68324000">
        <ele>143.00000</ele>
        <time>2010-01-01T00:32:20Z</time>
      </trkpt>
      <trkpt lat="31.49192000" lon="34.68335000">
        <ele>142.00000</ele>
        <time>2010-01-01T00:32:24Z</time>
      </trkpt>
      <trkpt lat="31.49193000" lon="34.68347000">
        <ele>142.00000</ele>
        <time>2010-01-01T00:32:29Z</time>
      </trkpt>
      <trkpt lat="31.49198000" lon="34.68360000">
        <ele>142.00000</ele>
        <time>2010-01-01T00:32:33Z</time>
      </trkpt>
      <trkpt lat="31.49206000" lon="34.68373000">
        <ele>142.00000</ele>
        <time>2010-01-01T00:32:39Z</time>
      </trkpt>
      <trkpt lat="31.49229000" lon="34.68383000">
        <ele>144.00000</ele>
        <time>2010-01-01T00:32:49Z</time>
      </trkpt>
      <trkpt lat="31.49240000" lon="34.68391000">
        <ele>145.00000</ele>
        <time>2010-01-01T00:32:54Z</time>
      </trkpt>
      <trkpt lat="31.49247000" lon="34.68402000">
        <ele>146.00000</ele>
        <time>2010-01-01T00:32:59Z</time>
      </trkpt>
      <trkpt lat="31.49250000" lon="34.68420000">
        <ele>145.00000</ele>
        <time>2010-01-01T00:33:05Z</time>
      </trkpt>
      <trkpt lat="31.49255000" lon="34.68429000">
        <ele>145.00000</ele>
        <time>2010-01-01T00:33:08Z</time>
      </trkpt>
      <trkpt lat="31.49262000" lon="34.68435000">
        <ele>144.00000</ele>
        <time>2010-01-01T00:33:12Z</time>
      </trkpt>
      <trkpt lat="31.49291000" lon="34.68446000">
        <ele>144.00000</ele>
        <time>2010-01-01T00:33:24Z</time>
      </trkpt>
      <trkpt lat="31.49317000" lon="34.68479000">
        <ele>143.00000</ele>
        <time>2010-01-01T00:33:39Z</time>
      </trkpt>
      <trkpt lat="31.49334000" lon="34.68505000">
        <ele>143.00000</ele>
        <time>2010-01-01T00:33:51Z</time>
      </trkpt>
      <trkpt lat="31.49327000" lon="34.68525000">
        <ele>143.00000</ele>
        <time>2010-01-01T00:33:58Z</time>
      </trkpt>
      <trkpt lat="31.49296000" lon="34.68544000">
        <ele>144.00000</ele>
        <time>2010-01-01T00:34:12Z</time>
      </trkpt>
      <trkpt lat="31.49250000" lon="34.68546000">
        <ele>148.00000</ele>
        <time>2010-01-01T00:34:30Z</time>
      </trkpt>
      <trkpt lat="31.49211000" lon="34.68530000">
        <ele>143.00000</ele>
        <time>2010-01-01T00:34:47Z</time>
      </trkpt>
      <trkpt lat="31.49202000" lon="34.68531000">
        <ele>142.00000</ele>
        <time>2010-01-01T00:34:51Z</time>
      </trkpt>
      <trkpt lat="31.49202000" lon="34.68530000">
        <ele>142.00000</ele>
        <time>2010-01-01T00:34:51Z</time>
      </trkpt>
      <trkpt lat="31.49199000" lon="34.68536000">
        <ele>142.00000</ele>
        <time>2010-01-01T00:34:53Z</time>
      </trkpt>
      <trkpt lat="31.49199000" lon="34.68552000">
        <ele>142.00000</ele>
        <time>2010-01-01T00:34:59Z</time>
      </trkpt>
      <trkpt lat="31.49203000" lon="34.68576000">
        <ele>143.00000</ele>
        <time>2010-01-01T00:35:07Z</time>
      </trkpt>
      <trkpt lat="31.49202000" lon="34.68591000">
        <ele>143.00000</ele>
        <time>2010-01-01T00:35:12Z</time>
      </trkpt>
      <trkpt lat="31.49203000" lon="34.68627000">
        <ele>146.00000</ele>
        <time>2010-01-01T00:35:25Z</time>
      </trkpt>
      <trkpt lat="31.49197000" lon="34.68638000">
        <ele>146.00000</ele>
        <time>2010-01-01T00:35:29Z</time>
      </trkpt>
      <trkpt lat="31.49198000" lon="34.68687000">
        <ele>146.00000</ele>
        <time>2010-01-01T00:35:46Z</time>
      </trkpt>
      <trkpt lat="31.49212000" lon="34.68717000">
        <ele>143.00000</ele>
        <time>2010-01-01T00:35:57Z</time>
      </trkpt>
      <trkpt lat="31.49265000" lon="34.68800000">
        <ele>145.00000</ele>
        <time>2010-01-01T00:36:33Z</time>
      </trkpt>
      <trkpt lat="31.49284000" lon="34.68819000">
        <ele>147.00000</ele>
        <time>2010-01-01T00:36:43Z</time>
      </trkpt>
      <trkpt lat="31.49327000" lon="34.68819000">
        <ele>148.00000</ele>
        <time>2010-01-01T00:37:00Z</time>
      </trkpt>
      <trkpt lat="31.49331000" lon="34.68819000">
        <ele>148.00000</ele>
        <time>2010-01-01T00:37:02Z</time>
      </trkpt>
      <trkpt lat="31.49362000" lon="34.68853000">
        <ele>150.00000</ele>
        <time>2010-01-01T00:37:19Z</time>
      </trkpt>
      <trkpt lat="31.49374000" lon="34.68875000">
        <ele>152.00000</ele>
        <time>2010-01-01T00:37:28Z</time>
      </trkpt>
      <trkpt lat="31.49368000" lon="34.68920000">
        <ele>154.00000</ele>
        <time>2010-01-01T00:37:43Z</time>
      </trkpt>
      <trkpt lat="31.49372000" lon="34.68967000">
        <ele>155.00000</ele>
        <time>2010-01-01T00:37:59Z</time>
      </trkpt>
      <trkpt lat="31.49385000" lon="34.69012000">
        <ele>154.00000</ele>
        <time>2010-01-01T00:38:15Z</time>
      </trkpt>
      <trkpt lat="31.49390000" lon="34.69047000">
        <ele>153.00000</ele>
        <time>2010-01-01T00:38:28Z</time>
      </trkpt>
      <trkpt lat="31.49373000" lon="34.69120000">
        <ele>156.00000</ele>
        <time>2010-01-01T00:38:53Z</time>
      </trkpt>
      <trkpt lat="31.49376000" lon="34.69152000">
        <ele>158.00000</ele>
        <time>2010-01-01T00:39:04Z</time>
      </trkpt>
      <trkpt lat="31.49382000" lon="34.69160000">
        <ele>159.00000</ele>
        <time>2010-01-01T00:39:08Z</time>
      </trkpt>
      <trkpt lat="31.49382000" lon="34.69159000">
        <ele>158.00000</ele>
        <time>2010-01-01T00:39:08Z</time>
      </trkpt>
      <trkpt lat="31.49392330" lon="34.69166990">
        <ele>159.00000</ele>
        <time>2010-01-01T00:39:13Z</time>
      </trkpt>
      <trkpt lat="31.49412910" lon="34.69172350">
        <ele>159.00000</ele>
        <time>2010-01-01T00:39:22Z</time>
      </trkpt>
      <trkpt lat="31.49421000" lon="34.69138000">
        <ele>157.00000</ele>
        <time>2010-01-01T00:39:34Z</time>
      </trkpt>
      <trkpt lat="31.49435000" lon="34.69143000">
        <ele>158.00000</ele>
        <time>2010-01-01T00:39:40Z</time>
      </trkpt>
      <trkpt lat="31.49443000" lon="34.69146000">
        <ele>158.00000</ele>
        <time>2010-01-01T00:39:43Z</time>
      </trkpt>
      <trkpt lat="31.49443000" lon="34.69183000">
        <ele>159.00000</ele>
        <time>2010-01-01T00:39:56Z</time>
      </trkpt>
      <trkpt lat="31.49443000" lon="34.69182000">
        <ele>159.00000</ele>
        <time>2010-01-01T00:39:56Z</time>
      </trkpt>
      <trkpt lat="31.49449000" lon="34.69212000">
        <ele>160.00000</ele>
        <time>2010-01-01T00:40:07Z</time>
      </trkpt>
      <trkpt lat="31.49464000" lon="34.69255000">
        <ele>160.00000</ele>
        <time>2010-01-01T00:40:22Z</time>
      </trkpt>
      <trkpt lat="31.49543000" lon="34.69508000">
        <ele>154.00000</ele>
        <time>2010-01-01T00:41:54Z</time>
      </trkpt>
      <trkpt lat="31.49548000" lon="34.69538000">
        <ele>153.00000</ele>
        <time>2010-01-01T00:42:05Z</time>
      </trkpt>
      <trkpt lat="31.49558000" lon="34.69541000">
        <ele>153.00000</ele>
        <time>2010-01-01T00:42:09Z</time>
      </trkpt>
      <trkpt lat="31.49559000" lon="34.69534000">
        <ele>153.00000</ele>
        <time>2010-01-01T00:42:11Z</time>
      </trkpt>
      <trkpt lat="31.49551000" lon="34.69482000">
        <ele>156.00000</ele>
        <time>2010-01-01T00:42:29Z</time>
      </trkpt>
      <trkpt lat="31.49548000" lon="34.69455000">
        <ele>157.00000</ele>
        <time>2010-01-01T00:42:39Z</time>
      </trkpt>
      <trkpt lat="31.49533000" lon="34.69431000">
        <ele>158.00000</ele>
        <time>2010-01-01T00:42:49Z</time>
      </trkpt>
      <trkpt lat="31.49530000" lon="34.69409000">
        <ele>158.00000</ele>
        <time>2010-01-01T00:42:57Z</time>
      </trkpt>
      <trkpt lat="31.49531000" lon="34.69408000">
        <ele>158.00000</ele>
        <time>2010-01-01T00:42:57Z</time>
      </trkpt>
      <trkpt lat="31.49552000" lon="34.69395000">
        <ele>157.00000</ele>
        <time>2010-01-01T00:43:07Z</time>
      </trkpt>
      <trkpt lat="31.49580000" lon="34.69405000">
        <ele>157.00000</ele>
        <time>2010-01-01T00:43:18Z</time>
      </trkpt>
      <trkpt lat="31.49599000" lon="34.69422000">
        <ele>156.00000</ele>
        <time>2010-01-01T00:43:28Z</time>
      </trkpt>
      <trkpt lat="31.49606000" lon="34.69447000">
        <ele>153.00000</ele>
        <time>2010-01-01T00:43:37Z</time>
      </trkpt>
      <trkpt lat="31.49611000" lon="34.69450000">
        <ele>152.00000</ele>
        <time>2010-01-01T00:43:39Z</time>
      </trkpt>
      <trkpt lat="31.49616000" lon="34.69441000">
        <ele>153.00000</ele>
        <time>2010-01-01T00:43:43Z</time>
      </trkpt>
      <trkpt lat="31.49619000" lon="34.69417000">
        <ele>155.00000</ele>
        <time>2010-01-01T00:43:51Z</time>
      </trkpt>
      <trkpt lat="31.49617000" lon="34.69406000">
        <ele>155.00000</ele>
        <time>2010-01-01T00:43:55Z</time>
      </trkpt>
      <trkpt lat="31.49596000" lon="34.69396000">
        <ele>157.00000</ele>
        <time>2010-01-01T00:44:04Z</time>
      </trkpt>
      <trkpt lat="31.49597000" lon="34.69390000">
        <ele>157.00000</ele>
        <time>2010-01-01T00:44:06Z</time>
      </trkpt>
      <trkpt lat="31.49601000" lon="34.69388000">
        <ele>156.00000</ele>
        <time>2010-01-01T00:44:08Z</time>
      </trkpt>
      <trkpt lat="31.49654000" lon="34.69410000">
        <ele>149.00000</ele>
        <time>2010-01-01T00:44:30Z</time>
      </trkpt>
      <trkpt lat="31.49666000" lon="34.69429000">
        <ele>148.00000</ele>
        <time>2010-01-01T00:44:38Z</time>
      </trkpt>
      <trkpt lat="31.49674000" lon="34.69463000">
        <ele>147.00000</ele>
        <time>2010-01-01T00:44:50Z</time>
      </trkpt>
      <trkpt lat="31.49660000" lon="34.69494000">
        <ele>148.00000</ele>
        <time>2010-01-01T00:45:02Z</time>
      </trkpt>
      <trkpt lat="31.49650000" lon="34.69511000">
        <ele>147.00000</ele>
        <time>2010-01-01T00:45:09Z</time>
      </trkpt>
      <trkpt lat="31.49645000" lon="34.69534000">
        <ele>147.00000</ele>
        <time>2010-01-01T00:45:18Z</time>
      </trkpt>
      <trkpt lat="31.49630000" lon="34.69558000">
        <ele>148.00000</ele>
        <time>2010-01-01T00:45:28Z</time>
      </trkpt>
      <trkpt lat="31.49630000" lon="34.69581000">
        <ele>148.00000</ele>
        <time>2010-01-01T00:45:36Z</time>
      </trkpt>
      <trkpt lat="31.49642000" lon="34.69595000">
        <ele>147.00000</ele>
        <time>2010-01-01T00:45:42Z</time>
      </trkpt>
      <trkpt lat="31.49658000" lon="34.69618000">
        <ele>146.00000</ele>
        <time>2010-01-01T00:45:52Z</time>
      </trkpt>
      <trkpt lat="31.49676000" lon="34.69620000">
        <ele>145.00000</ele>
        <time>2010-01-01T00:46:00Z</time>
      </trkpt>
      <trkpt lat="31.49693000" lon="34.69615000">
        <ele>145.00000</ele>
        <time>2010-01-01T00:46:07Z</time>
      </trkpt>
      <trkpt lat="31.49719000" lon="34.69602000">
        <ele>145.00000</ele>
        <time>2010-01-01T00:46:18Z</time>
      </trkpt>
      <trkpt lat="31.49735000" lon="34.69604000">
        <ele>147.00000</ele>
        <time>2010-01-01T00:46:24Z</time>
      </trkpt>
      <trkpt lat="31.49740000" lon="34.69620000">
        <ele>148.00000</ele>
        <time>2010-01-01T00:46:30Z</time>
      </trkpt>
      <trkpt lat="31.49757000" lon="34.69629000">
        <ele>150.00000</ele>
        <time>2010-01-01T00:46:38Z</time>
      </trkpt>
      <trkpt lat="31.49772000" lon="34.69644000">
        <ele>150.00000</ele>
        <time>2010-01-01T00:46:46Z</time>
      </trkpt>
      <trkpt lat="31.49791000" lon="34.69642000">
        <ele>151.00000</ele>
        <time>2010-01-01T00:46:53Z</time>
      </trkpt>
      <trkpt lat="31.49806000" lon="34.69651000">
        <ele>152.00000</ele>
        <time>2010-01-01T00:47:00Z</time>
      </trkpt>
      <trkpt lat="31.49805000" lon="34.69653000">
        <ele>151.00000</ele>
        <time>2010-01-01T00:47:01Z</time>
      </trkpt>
      <trkpt lat="31.49800000" lon="34.69667000">
        <ele>152.00000</ele>
        <time>2010-01-01T00:47:06Z</time>
      </trkpt>
      <trkpt lat="31.49795000" lon="34.69685000">
        <ele>152.00000</ele>
        <time>2010-01-01T00:47:12Z</time>
      </trkpt>
      <trkpt lat="31.49798000" lon="34.69710000">
        <ele>153.00000</ele>
        <time>2010-01-01T00:47:21Z</time>
      </trkpt>
      <trkpt lat="31.49814000" lon="34.69749000">
        <ele>154.00000</ele>
        <time>2010-01-01T00:47:36Z</time>
      </trkpt>
      <trkpt lat="31.49854000" lon="34.69781000">
        <ele>157.00000</ele>
        <time>2010-01-01T00:47:55Z</time>
      </trkpt>
      <trkpt lat="31.49880000" lon="34.69805000">
        <ele>157.00000</ele>
        <time>2010-01-01T00:48:08Z</time>
      </trkpt>
      <trkpt lat="31.49897000" lon="34.69814000">
        <ele>158.00000</ele>
        <time>2010-01-01T00:48:16Z</time>
      </trkpt>
      <trkpt lat="31.49912000" lon="34.69829000">
        <ele>159.00000</ele>
        <time>2010-01-01T00:48:24Z</time>
      </trkpt>
      <trkpt lat="31.49925000" lon="34.69835000">
        <ele>160.00000</ele>
        <time>2010-01-01T00:48:29Z</time>
      </trkpt>
      <trkpt lat="31.49940000" lon="34.69825000">
        <ele>162.00000</ele>
        <time>2010-01-01T00:48:36Z</time>
      </trkpt>
      <trkpt lat="31.49951000" lon="34.69831000">
        <ele>163.00000</ele>
        <time>2010-01-01T00:48:41Z</time>
      </trkpt>
      <trkpt lat="31.49947000" lon="34.69846000">
        <ele>163.00000</ele>
        <time>2010-01-01T00:48:47Z</time>
      </trkpt>
      <trkpt lat="31.49949000" lon="34.69859000">
        <ele>163.00000</ele>
        <time>2010-01-01T00:48:51Z</time>
      </trkpt>
      <trkpt lat="31.49942000" lon="34.69877000">
        <ele>163.00000</ele>
        <time>2010-01-01T00:48:58Z</time>
      </trkpt>
      <trkpt lat="31.49940000" lon="34.69897000">
        <ele>163.00000</ele>
        <time>2010-01-01T00:49:05Z</time>
      </trkpt>
      <trkpt lat="31.49933000" lon="34.69910000">
        <ele>164.00000</ele>
        <time>2010-01-01T00:49:10Z</time>
      </trkpt>
      <trkpt lat="31.49953000" lon="34.69912000">
        <ele>163.00000</ele>
        <time>2010-01-01T00:49:18Z</time>
      </trkpt>
      <trkpt lat="31.49952000" lon="34.69912000">
        <ele>163.00000</ele>
        <time>2010-01-01T00:49:18Z</time>
      </trkpt>
      <trkpt lat="31.49961000" lon="34.69925000">
        <ele>162.00000</ele>
        <time>2010-01-01T00:49:24Z</time>
      </trkpt>
      <trkpt lat="31.49966000" lon="34.69934000">
        <ele>162.00000</ele>
        <time>2010-01-01T00:49:28Z</time>
      </trkpt>
      <trkpt lat="31.49966000" lon="34.69940000">
        <ele>163.00000</ele>
        <time>2010-01-01T00:49:30Z</time>
      </trkpt>
      <trkpt lat="31.49981000" lon="34.69979000">
        <ele>164.00000</ele>
        <time>2010-01-01T00:49:44Z</time>
      </trkpt>
      <trkpt lat="31.49994000" lon="34.69996000">
        <ele>165.00000</ele>
        <time>2010-01-01T00:49:52Z</time>
      </trkpt>
      <trkpt lat="31.50014000" lon="34.70005000">
        <ele>165.00000</ele>
        <time>2010-01-01T00:50:01Z</time>
      </trkpt>
      <trkpt lat="31.50021000" lon="34.70014000">
        <ele>165.00000</ele>
        <time>2010-01-01T00:50:05Z</time>
      </trkpt>
      <trkpt lat="31.50025000" lon="34.70015000">
        <ele>165.00000</ele>
        <time>2010-01-01T00:50:07Z</time>
      </trkpt>
      <trkpt lat="31.50040000" lon="34.70009000">
        <ele>163.00000</ele>
        <time>2010-01-01T00:50:13Z</time>
      </trkpt>
      <trkpt lat="31.50045000" lon="34.70010000">
        <ele>162.00000</ele>
        <time>2010-01-01T00:50:15Z</time>
      </trkpt>
      <trkpt lat="31.50051000" lon="34.70014000">
        <ele>161.00000</ele>
        <time>2010-01-01T00:50:18Z</time>
      </trkpt>
      <trkpt lat="31.50057000" lon="34.70029000">
        <ele>161.00000</ele>
        <time>2010-01-01T00:50:23Z</time>
      </trkpt>
      <trkpt lat="31.50063000" lon="34.70055000">
        <ele>161.00000</ele>
        <time>2010-01-01T00:50:33Z</time>
      </trkpt>
      <trkpt lat="31.50064000" lon="34.70066000">
        <ele>161.00000</ele>
        <time>2010-01-01T00:50:36Z</time>
      </trkpt>
      <trkpt lat="31.50068000" lon="34.70084000">
        <ele>161.00000</ele>
        <time>2010-01-01T00:50:43Z</time>
      </trkpt>
      <trkpt lat="31.50062000" lon="34.70123000">
        <ele>160.00000</ele>
        <time>2010-01-01T00:50:56Z</time>
      </trkpt>
      <trkpt lat="31.50064000" lon="34.70127000">
        <ele>160.00000</ele>
        <time>2010-01-01T00:50:58Z</time>
      </trkpt>
      <trkpt lat="31.50071000" lon="34.70129000">
        <ele>159.00000</ele>
        <time>2010-01-01T00:51:01Z</time>
      </trkpt>
      <trkpt lat="31.50070000" lon="34.70129000">
        <ele>159.00000</ele>
        <time>2010-01-01T00:51:01Z</time>
      </trkpt>
      <trkpt lat="31.50072000" lon="34.70129000">
        <ele>159.00000</ele>
        <time>2010-01-01T00:51:02Z</time>
      </trkpt>
      <trkpt lat="31.50076000" lon="34.70125000">
        <ele>159.00000</ele>
        <time>2010-01-01T00:51:04Z</time>
      </trkpt>
      <trkpt lat="31.50087000" lon="34.70082000">
        <ele>158.00000</ele>
        <time>2010-01-01T00:51:19Z</time>
      </trkpt>
      <trkpt lat="31.50087000" lon="34.70057000">
        <ele>155.00000</ele>
        <time>2010-01-01T00:51:28Z</time>
      </trkpt>
      <trkpt lat="31.50089000" lon="34.70046000">
        <ele>154.00000</ele>
        <time>2010-01-01T00:51:32Z</time>
      </trkpt>
      <trkpt lat="31.50110000" lon="34.69986000">
        <ele>151.00000</ele>
        <time>2010-01-01T00:51:54Z</time>
      </trkpt>
      <trkpt lat="31.50114000" lon="34.69981000">
        <ele>150.00000</ele>
        <time>2010-01-01T00:51:56Z</time>
      </trkpt>
      <trkpt lat="31.50119000" lon="34.69981000">
        <ele>149.00000</ele>
        <time>2010-01-01T00:51:58Z</time>
      </trkpt>
      <trkpt lat="31.50127000" lon="34.69985000">
        <ele>148.00000</ele>
        <time>2010-01-01T00:52:02Z</time>
      </trkpt>
      <trkpt lat="31.50134000" lon="34.69979000">
        <ele>147.00000</ele>
        <time>2010-01-01T00:52:05Z</time>
      </trkpt>
      <trkpt lat="31.50142010" lon="34.69957700">
        <ele>146.00000</ele>
        <time>2010-01-01T00:52:13Z</time>
      </trkpt>
      <trkpt lat="31.50150000" lon="34.69935000">
        <ele>145.00000</ele>
        <time>2010-01-01T00:52:21Z</time>
      </trkpt>
      <trkpt lat="31.50169000" lon="34.69909000">
        <ele>143.00000</ele>
        <time>2010-01-01T00:52:33Z</time>
      </trkpt>
      <trkpt lat="31.50178000" lon="34.69886000">
        <ele>144.00000</ele>
        <time>2010-01-01T00:52:42Z</time>
      </trkpt>
      <trkpt lat="31.50183000" lon="34.69859000">
        <ele>145.00000</ele>
        <time>2010-01-01T00:52:51Z</time>
      </trkpt>
      <trkpt lat="31.50185000" lon="34.69845000">
        <ele>145.00000</ele>
        <time>2010-01-01T00:52:56Z</time>
      </trkpt>
      <trkpt lat="31.50184000" lon="34.69825000">
        <ele>145.00000</ele>
        <time>2010-01-01T00:53:03Z</time>
      </trkpt>
      <trkpt lat="31.50178000" lon="34.69794000">
        <ele>145.00000</ele>
        <time>2010-01-01T00:53:14Z</time>
      </trkpt>
      <trkpt lat="31.50171000" lon="34.69768000">
        <ele>145.00000</ele>
        <time>2010-01-01T00:53:23Z</time>
      </trkpt>
      <trkpt lat="31.50160000" lon="34.69739000">
        <ele>146.00000</ele>
        <time>2010-01-01T00:53:34Z</time>
      </trkpt>
      <trkpt lat="31.50153000" lon="34.69705000">
        <ele>148.00000</ele>
        <time>2010-01-01T00:53:46Z</time>
      </trkpt>
      <trkpt lat="31.50144000" lon="34.69675000">
        <ele>147.00000</ele>
        <time>2010-01-01T00:53:57Z</time>
      </trkpt>
      <trkpt lat="31.50141000" lon="34.69648000">
        <ele>146.00000</ele>
        <time>2010-01-01T00:54:06Z</time>
      </trkpt>
      <trkpt lat="31.50145000" lon="34.69600000">
        <ele>142.00000</ele>
        <time>2010-01-01T00:54:22Z</time>
      </trkpt>
      <trkpt lat="31.50144000" lon="34.69586000">
        <ele>143.00000</ele>
        <time>2010-01-01T00:54:27Z</time>
      </trkpt>
      <trkpt lat="31.50144000" lon="34.69522000">
        <ele>141.00000</ele>
        <time>2010-01-01T00:54:49Z</time>
      </trkpt>
      <trkpt lat="31.50145000" lon="34.69516000">
        <ele>140.00000</ele>
        <time>2010-01-01T00:54:51Z</time>
      </trkpt>
      <trkpt lat="31.50146000" lon="34.69491000">
        <ele>140.00000</ele>
        <time>2010-01-01T00:55:00Z</time>
      </trkpt>
      <trkpt lat="31.50147000" lon="34.69485000">
        <ele>141.00000</ele>
        <time>2010-01-01T00:55:02Z</time>
      </trkpt>
      <trkpt lat="31.50147000" lon="34.69475000">
        <ele>141.00000</ele>
        <time>2010-01-01T00:55:05Z</time>
      </trkpt>
      <trkpt lat="31.50156000" lon="34.69434000">
        <ele>141.00000</ele>
        <time>2010-01-01T00:55:20Z</time>
      </trkpt>
      <trkpt lat="31.50158000" lon="34.69418000">
        <ele>140.00000</ele>
        <time>2010-01-01T00:55:25Z</time>
      </trkpt>
      <trkpt lat="31.50158000" lon="34.69399000">
        <ele>139.00000</ele>
        <time>2010-01-01T00:55:32Z</time>
      </trkpt>
      <trkpt lat="31.50155000" lon="34.69382000">
        <ele>139.00000</ele>
        <time>2010-01-01T00:55:38Z</time>
      </trkpt>
      <trkpt lat="31.50151000" lon="34.69345000">
        <ele>139.00000</ele>
        <time>2010-01-01T00:55:50Z</time>
      </trkpt>
      <trkpt lat="31.50153000" lon="34.69299000">
        <ele>136.00000</ele>
        <time>2010-01-01T00:56:06Z</time>
      </trkpt>
      <trkpt lat="31.50157000" lon="34.69268000">
        <ele>136.00000</ele>
        <time>2010-01-01T00:56:17Z</time>
      </trkpt>
      <trkpt lat="31.50162000" lon="34.69242000">
        <ele>136.00000</ele>
        <time>2010-01-01T00:56:26Z</time>
      </trkpt>
      <trkpt lat="31.50177000" lon="34.69203000">
        <ele>135.00000</ele>
        <time>2010-01-01T00:56:40Z</time>
      </trkpt>
      <trkpt lat="31.50182000" lon="34.69194000">
        <ele>134.00000</ele>
        <time>2010-01-01T00:56:44Z</time>
      </trkpt>
      <trkpt lat="31.50189000" lon="34.69170000">
        <ele>132.00000</ele>
        <time>2010-01-01T00:56:53Z</time>
      </trkpt>
      <trkpt lat="31.50193000" lon="34.69148000">
        <ele>131.00000</ele>
        <time>2010-01-01T00:57:00Z</time>
      </trkpt>
      <trkpt lat="31.50195000" lon="34.69116000">
        <ele>129.00000</ele>
        <time>2010-01-01T00:57:11Z</time>
      </trkpt>
      <trkpt lat="31.50199000" lon="34.69094000">
        <ele>129.00000</ele>
        <time>2010-01-01T00:57:19Z</time>
      </trkpt>
      <trkpt lat="31.50206000" lon="34.69077000">
        <ele>129.00000</ele>
        <time>2010-01-01T00:57:25Z</time>
      </trkpt>
      <trkpt lat="31.50218000" lon="34.69061000">
        <ele>129.00000</ele>
        <time>2010-01-01T00:57:33Z</time>
      </trkpt>
      <trkpt lat="31.50241260" lon="34.69043070">
        <ele>134.00000</ele>
        <time>2010-01-01T00:57:44Z</time>
      </trkpt>
      <trkpt lat="31.50244000" lon="34.69020000">
        <ele>135.00000</ele>
        <time>2010-01-01T00:57:52Z</time>
      </trkpt>
      <trkpt lat="31.50231000" lon="34.68983000">
        <ele>133.00000</ele>
        <time>2010-01-01T00:58:05Z</time>
      </trkpt>
      <trkpt lat="31.50229000" lon="34.68973000">
        <ele>132.00000</ele>
        <time>2010-01-01T00:58:09Z</time>
      </trkpt>
      <trkpt lat="31.50218000" lon="34.68961000">
        <ele>131.00000</ele>
        <time>2010-01-01T00:58:15Z</time>
      </trkpt>
      <trkpt lat="31.50214000" lon="34.68951000">
        <ele>131.00000</ele>
        <time>2010-01-01T00:58:19Z</time>
      </trkpt>
      <trkpt lat="31.50213000" lon="34.68892000">
        <ele>132.00000</ele>
        <time>2010-01-01T00:58:39Z</time>
      </trkpt>
      <trkpt lat="31.50211080" lon="34.68856930">
        <ele>131.00000</ele>
        <time>2010-01-01T00:58:51Z</time>
      </trkpt>
      <trkpt lat="31.50203760" lon="34.68842980">
        <ele>130.00000</ele>
        <time>2010-01-01T00:58:56Z</time>
      </trkpt>
      <trkpt lat="31.50201010" lon="34.68810790">
        <ele>128.00000</ele>
        <time>2010-01-01T00:59:08Z</time>
      </trkpt>
      <trkpt lat="31.50198270" lon="34.68780750">
        <ele>128.00000</ele>
        <time>2010-01-01T00:59:18Z</time>
      </trkpt>
      <trkpt lat="31.50198270" lon="34.68771100">
        <ele>128.00000</ele>
        <time>2010-01-01T00:59:21Z</time>
      </trkpt>
      <trkpt lat="31.50208330" lon="34.68734620">
        <ele>129.00000</ele>
        <time>2010-01-01T00:59:34Z</time>
      </trkpt>
      <trkpt lat="31.50241260" lon="34.68694920">
        <ele>129.00000</ele>
        <time>2010-01-01T00:59:53Z</time>
      </trkpt>
      <trkpt lat="31.50241000" lon="34.68695000">
        <ele>129.00000</ele>
        <time>2010-01-01T00:59:53Z</time>
      </trkpt>
      <trkpt lat="31.50305000" lon="34.68605000">
        <ele>124.00000</ele>
        <time>2010-01-01T01:00:33Z</time>
      </trkpt>
      <trkpt lat="31.50351000" lon="34.68546000">
        <ele>124.00000</ele>
        <time>2010-01-01T01:01:01Z</time>
      </trkpt>
      <trkpt lat="31.50401000" lon="34.68509000">
        <ele>124.00000</ele>
        <time>2010-01-01T01:01:24Z</time>
      </trkpt>
      <trkpt lat="31.50412000" lon="34.68498000">
        <ele>123.00000</ele>
        <time>2010-01-01T01:01:30Z</time>
      </trkpt>
      <trkpt lat="31.50425000" lon="34.68477000">
        <ele>124.00000</ele>
        <time>2010-01-01T01:01:39Z</time>
      </trkpt>
      <trkpt lat="31.50438000" lon="34.68472000">
        <ele>125.00000</ele>
        <time>2010-01-01T01:01:44Z</time>
      </trkpt>
      <trkpt lat="31.50452000" lon="34.68463000">
        <ele>126.00000</ele>
        <time>2010-01-01T01:01:51Z</time>
      </trkpt>
      <trkpt lat="31.50463000" lon="34.68460000">
        <ele>125.00000</ele>
        <time>2010-01-01T01:01:55Z</time>
      </trkpt>
      <trkpt lat="31.50474000" lon="34.68454000">
        <ele>125.00000</ele>
        <time>2010-01-01T01:02:00Z</time>
      </trkpt>
      <trkpt lat="31.50486000" lon="34.68445000">
        <ele>125.00000</ele>
        <time>2010-01-01T01:02:06Z</time>
      </trkpt>
      <trkpt lat="31.50495000" lon="34.68434000">
        <ele>125.00000</ele>
        <time>2010-01-01T01:02:11Z</time>
      </trkpt>
      <trkpt lat="31.50504000" lon="34.68414000">
        <ele>124.00000</ele>
        <time>2010-01-01T01:02:19Z</time>
      </trkpt>
      <trkpt lat="31.50508000" lon="34.68387000">
        <ele>124.00000</ele>
        <time>2010-01-01T01:02:28Z</time>
      </trkpt>
      <trkpt lat="31.50515000" lon="34.68372000">
        <ele>124.00000</ele>
        <time>2010-01-01T01:02:34Z</time>
      </trkpt>
      <trkpt lat="31.50520000" lon="34.68359000">
        <ele>124.00000</ele>
        <time>2010-01-01T01:02:39Z</time>
      </trkpt>
      <trkpt lat="31.50530000" lon="34.68341000">
        <ele>123.00000</ele>
        <time>2010-01-01T01:02:46Z</time>
      </trkpt>
      <trkpt lat="31.50545000" lon="34.68329000">
        <ele>123.00000</ele>
        <time>2010-01-01T01:02:53Z</time>
      </trkpt>
      <trkpt lat="31.50572000" lon="34.68313000">
        <ele>124.00000</ele>
        <time>2010-01-01T01:03:05Z</time>
      </trkpt>
      <trkpt lat="31.50588000" lon="34.68296000">
        <ele>123.00000</ele>
        <time>2010-01-01T01:03:14Z</time>
      </trkpt>
      <trkpt lat="31.50599000" lon="34.68274000">
        <ele>122.00000</ele>
        <time>2010-01-01T01:03:23Z</time>
      </trkpt>
      <trkpt lat="31.50605000" lon="34.68233000">
        <ele>123.00000</ele>
        <time>2010-01-01T01:03:37Z</time>
      </trkpt>
      <trkpt lat="31.50618000" lon="34.68200000">
        <ele>124.00000</ele>
        <time>2010-01-01T01:03:49Z</time>
      </trkpt>
      <trkpt lat="31.50633000" lon="34.68167000">
        <ele>125.00000</ele>
        <time>2010-01-01T01:04:02Z</time>
      </trkpt>
      <trkpt lat="31.50650000" lon="34.68151000">
        <ele>124.00000</ele>
        <time>2010-01-01T01:04:11Z</time>
      </trkpt>
      <trkpt lat="31.50657000" lon="34.68140000">
        <ele>124.00000</ele>
        <time>2010-01-01T01:04:16Z</time>
      </trkpt>
      <trkpt lat="31.50665000" lon="34.68117000">
        <ele>124.00000</ele>
        <time>2010-01-01T01:04:24Z</time>
      </trkpt>
      <trkpt lat="31.50671000" lon="34.68091000">
        <ele>122.00000</ele>
        <time>2010-01-01T01:04:33Z</time>
      </trkpt>
      <trkpt lat="31.50676000" lon="34.68078000">
        <ele>122.00000</ele>
        <time>2010-01-01T01:04:38Z</time>
      </trkpt>
      <trkpt lat="31.50700000" lon="34.68046000">
        <ele>121.00000</ele>
        <time>2010-01-01T01:04:53Z</time>
      </trkpt>
      <trkpt lat="31.50716000" lon="34.68027000">
        <ele>120.00000</ele>
        <time>2010-01-01T01:05:02Z</time>
      </trkpt>
      <trkpt lat="31.50734000" lon="34.67998000">
        <ele>118.00000</ele>
        <time>2010-01-01T01:05:14Z</time>
      </trkpt>
      <trkpt lat="31.50741000" lon="34.67983000">
        <ele>119.00000</ele>
        <time>2010-01-01T01:05:20Z</time>
      </trkpt>
      <trkpt lat="31.50756000" lon="34.67960000">
        <ele>120.00000</ele>
        <time>2010-01-01T01:05:30Z</time>
      </trkpt>
      <trkpt lat="31.50765000" lon="34.67937000">
        <ele>120.00000</ele>
        <time>2010-01-01T01:05:38Z</time>
      </trkpt>
      <trkpt lat="31.50766000" lon="34.67932000">
        <ele>120.00000</ele>
        <time>2010-01-01T01:05:40Z</time>
      </trkpt>
      <trkpt lat="31.50766000" lon="34.67914000">
        <ele>119.00000</ele>
        <time>2010-01-01T01:05:46Z</time>
      </trkpt>
      <trkpt lat="31.50771000" lon="34.67857000">
        <ele>117.00000</ele>
        <time>2010-01-01T01:06:06Z</time>
      </trkpt>
      <trkpt lat="31.50770000" lon="34.67849000">
        <ele>118.00000</ele>
        <time>2010-01-01T01:06:09Z</time>
      </trkpt>
      <trkpt lat="31.50770000" lon="34.67811000">
        <ele>120.00000</ele>
        <time>2010-01-01T01:06:22Z</time>
      </trkpt>
      <trkpt lat="31.50768000" lon="34.67800000">
        <ele>120.00000</ele>
        <time>2010-01-01T01:06:25Z</time>
      </trkpt>
      <trkpt lat="31.50768000" lon="34.67799000">
        <ele>120.00000</ele>
        <time>2010-01-01T01:06:26Z</time>
      </trkpt>
      <trkpt lat="31.50768000" lon="34.67780000">
        <ele>119.00000</ele>
        <time>2010-01-01T01:06:32Z</time>
      </trkpt>
      <trkpt lat="31.50759000" lon="34.67744000">
        <ele>118.00000</ele>
        <time>2010-01-01T01:06:45Z</time>
      </trkpt>
      <trkpt lat="31.50759000" lon="34.67727000">
        <ele>118.00000</ele>
        <time>2010-01-01T01:06:51Z</time>
      </trkpt>
      <trkpt lat="31.50760000" lon="34.67723000">
        <ele>118.00000</ele>
        <time>2010-01-01T01:06:52Z</time>
      </trkpt>
      <trkpt lat="31.50767000" lon="34.67714000">
        <ele>119.00000</ele>
        <time>2010-01-01T01:06:56Z</time>
      </trkpt>
      <trkpt lat="31.50783000" lon="34.67709000">
        <ele>118.00000</ele>
        <time>2010-01-01T01:07:03Z</time>
      </trkpt>
      <trkpt lat="31.50822000" lon="34.67710000">
        <ele>119.00000</ele>
        <time>2010-01-01T01:07:19Z</time>
      </trkpt>
      <trkpt lat="31.50829000" lon="34.67706000">
        <ele>119.00000</ele>
        <time>2010-01-01T01:07:22Z</time>
      </trkpt>
      <trkpt lat="31.50837000" lon="34.67699000">
        <ele>119.00000</ele>
        <time>2010-01-01T01:07:26Z</time>
      </trkpt>
      <trkpt lat="31.50844070" lon="34.67668710">
        <ele>117.00000</ele>
        <time>2010-01-01T01:07:36Z</time>
      </trkpt>
      <trkpt lat="31.50838580" lon="34.67653150">
        <ele>116.00000</ele>
        <time>2010-01-01T01:07:42Z</time>
      </trkpt>
      <trkpt lat="31.50830350" lon="34.67628470">
        <ele>117.00000</ele>
        <time>2010-01-01T01:07:51Z</time>
      </trkpt>
      <trkpt lat="31.50830000" lon="34.67628000">
        <ele>117.00000</ele>
        <time>2010-01-01T01:07:51Z</time>
      </trkpt>
      <trkpt lat="31.50827000" lon="34.67613000">
        <ele>117.00000</ele>
        <time>2010-01-01T01:07:57Z</time>
      </trkpt>
      <trkpt lat="31.50821000" lon="34.67554000">
        <ele>114.00000</ele>
        <time>2010-01-01T01:08:17Z</time>
      </trkpt>
      <trkpt lat="31.50822000" lon="34.67529000">
        <ele>115.00000</ele>
        <time>2010-01-01T01:08:26Z</time>
      </trkpt>
      <trkpt lat="31.50835000" lon="34.67491000">
        <ele>117.00000</ele>
        <time>2010-01-01T01:08:40Z</time>
      </trkpt>
      <trkpt lat="31.50816630" lon="34.67422480">
        <ele>118.00000</ele>
        <time>2010-01-01T01:09:04Z</time>
      </trkpt>
      <trkpt lat="31.50801990" lon="34.67424630">
        <ele>117.00000</ele>
        <time>2010-01-01T01:09:10Z</time>
      </trkpt>
      <trkpt lat="31.50793300" lon="34.67417120">
        <ele>117.00000</ele>
        <time>2010-01-01T01:09:14Z</time>
      </trkpt>
      <trkpt lat="31.50781870" lon="34.67411220">
        <ele>116.00000</ele>
        <time>2010-01-01T01:09:19Z</time>
      </trkpt>
      <trkpt lat="31.50781000" lon="34.67411000">
        <ele>116.00000</ele>
        <time>2010-01-01T01:09:20Z</time>
      </trkpt>
      <trkpt lat="31.50763000" lon="34.67394000">
        <ele>116.00000</ele>
        <time>2010-01-01T01:09:29Z</time>
      </trkpt>
      <trkpt lat="31.50763000" lon="34.67393000">
        <ele>116.00000</ele>
        <time>2010-01-01T01:09:29Z</time>
      </trkpt>
      <trkpt lat="31.50753000" lon="34.67374000">
        <ele>115.00000</ele>
        <time>2010-01-01T01:09:37Z</time>
      </trkpt>
      <trkpt lat="31.50753000" lon="34.67373000">
        <ele>115.00000</ele>
        <time>2010-01-01T01:09:37Z</time>
      </trkpt>
      <trkpt lat="31.50752000" lon="34.67362000">
        <ele>115.00000</ele>
        <time>2010-01-01T01:09:41Z</time>
      </trkpt>
      <trkpt lat="31.50752000" lon="34.67335000">
        <ele>115.00000</ele>
        <time>2010-01-01T01:09:50Z</time>
      </trkpt>
      <trkpt lat="31.50752000" lon="34.67334000">
        <ele>115.00000</ele>
        <time>2010-01-01T01:09:51Z</time>
      </trkpt>
      <trkpt lat="31.50746000" lon="34.67305000">
        <ele>115.00000</ele>
        <time>2010-01-01T01:10:01Z</time>
      </trkpt>
      <trkpt lat="31.50746000" lon="34.67304000">
        <ele>115.00000</ele>
        <time>2010-01-01T01:10:01Z</time>
      </trkpt>
      <trkpt lat="31.50734000" lon="34.67272000">
        <ele>114.00000</ele>
        <time>2010-01-01T01:10:13Z</time>
      </trkpt>
      <trkpt lat="31.50734000" lon="34.67271000">
        <ele>114.00000</ele>
        <time>2010-01-01T01:10:13Z</time>
      </trkpt>
      <trkpt lat="31.50734000" lon="34.67266000">
        <ele>114.00000</ele>
        <time>2010-01-01T01:10:15Z</time>
      </trkpt>
      <trkpt lat="31.50734000" lon="34.67265000">
        <ele>114.00000</ele>
        <time>2010-01-01T01:10:15Z</time>
      </trkpt>
      <trkpt lat="31.50729000" lon="34.67253000">
        <ele>114.00000</ele>
        <time>2010-01-01T01:10:20Z</time>
      </trkpt>
      <trkpt lat="31.50729000" lon="34.67252000">
        <ele>114.00000</ele>
        <time>2010-01-01T01:10:20Z</time>
      </trkpt>
      <trkpt lat="31.50718000" lon="34.67231000">
        <ele>115.00000</ele>
        <time>2010-01-01T01:10:29Z</time>
      </trkpt>
      <trkpt lat="31.50718000" lon="34.67230000">
        <ele>115.00000</ele>
        <time>2010-01-01T01:10:29Z</time>
      </trkpt>
      <trkpt lat="31.50714000" lon="34.67214000">
        <ele>114.00000</ele>
        <time>2010-01-01T01:10:35Z</time>
      </trkpt>
      <trkpt lat="31.50712000" lon="34.67196000">
        <ele>114.00000</ele>
        <time>2010-01-01T01:10:41Z</time>
      </trkpt>
      <trkpt lat="31.50713000" lon="34.67157000">
        <ele>112.00000</ele>
        <time>2010-01-01T01:10:54Z</time>
      </trkpt>
      <trkpt lat="31.50717000" lon="34.67144000">
        <ele>112.00000</ele>
        <time>2010-01-01T01:10:59Z</time>
      </trkpt>
      <trkpt lat="31.50718000" lon="34.67138000">
        <ele>111.00000</ele>
        <time>2010-01-01T01:11:01Z</time>
      </trkpt>
      <trkpt lat="31.50701000" lon="34.67094000">
        <ele>111.00000</ele>
        <time>2010-01-01T01:11:17Z</time>
      </trkpt>
      <trkpt lat="31.50696000" lon="34.67078000">
        <ele>111.00000</ele>
        <time>2010-01-01T01:11:23Z</time>
      </trkpt>
      <trkpt lat="31.50684000" lon="34.67057000">
        <ele>111.00000</ele>
        <time>2010-01-01T01:11:32Z</time>
      </trkpt>
      <trkpt lat="31.50671000" lon="34.67030000">
        <ele>112.00000</ele>
        <time>2010-01-01T01:11:43Z</time>
      </trkpt>
      <trkpt lat="31.50671000" lon="34.67029000">
        <ele>112.00000</ele>
        <time>2010-01-01T01:11:43Z</time>
      </trkpt>
      <trkpt lat="31.50647000" lon="34.66990000">
        <ele>110.00000</ele>
        <time>2010-01-01T01:11:59Z</time>
      </trkpt>
      <trkpt lat="31.50630000" lon="34.66943000">
        <ele>108.00000</ele>
        <time>2010-01-01T01:12:17Z</time>
      </trkpt>
      <trkpt lat="31.50630000" lon="34.66911000">
        <ele>109.00000</ele>
        <time>2010-01-01T01:12:28Z</time>
      </trkpt>
      <trkpt lat="31.50636000" lon="34.66892000">
        <ele>110.00000</ele>
        <time>2010-01-01T01:12:35Z</time>
      </trkpt>
      <trkpt lat="31.50640000" lon="34.66884000">
        <ele>110.00000</ele>
        <time>2010-01-01T01:12:38Z</time>
      </trkpt>
      <trkpt lat="31.50640000" lon="34.66885000">
        <ele>110.00000</ele>
        <time>2010-01-01T01:12:38Z</time>
      </trkpt>
      <trkpt lat="31.50664000" lon="34.66871000">
        <ele>110.00000</ele>
        <time>2010-01-01T01:12:49Z</time>
      </trkpt>
      <trkpt lat="31.50664000" lon="34.66870000">
        <ele>110.00000</ele>
        <time>2010-01-01T01:12:49Z</time>
      </trkpt>
      <trkpt lat="31.50693000" lon="34.66880000">
        <ele>110.00000</ele>
        <time>2010-01-01T01:13:01Z</time>
      </trkpt>
      <trkpt lat="31.50722000" lon="34.66886000">
        <ele>111.00000</ele>
        <time>2010-01-01T01:13:13Z</time>
      </trkpt>
      <trkpt lat="31.50751000" lon="34.66871000">
        <ele>112.00000</ele>
        <time>2010-01-01T01:13:26Z</time>
      </trkpt>
      <trkpt lat="31.50783000" lon="34.66841000">
        <ele>112.00000</ele>
        <time>2010-01-01T01:13:42Z</time>
      </trkpt>
      <trkpt lat="31.50793000" lon="34.66813000">
        <ele>111.00000</ele>
        <time>2010-01-01T01:13:52Z</time>
      </trkpt>
      <trkpt lat="31.50789000" lon="34.66797000">
        <ele>111.00000</ele>
        <time>2010-01-01T01:13:58Z</time>
      </trkpt>
      <trkpt lat="31.50777000" lon="34.66784000">
        <ele>111.00000</ele>
        <time>2010-01-01T01:14:05Z</time>
      </trkpt>
      <trkpt lat="31.50760000" lon="34.66779000">
        <ele>112.00000</ele>
        <time>2010-01-01T01:14:12Z</time>
      </trkpt>
      <trkpt lat="31.50747000" lon="34.66791000">
        <ele>112.00000</ele>
        <time>2010-01-01T01:14:18Z</time>
      </trkpt>
      <trkpt lat="31.50734000" lon="34.66788000">
        <ele>111.00000</ele>
        <time>2010-01-01T01:14:24Z</time>
      </trkpt>
      <trkpt lat="31.50734000" lon="34.66787000">
        <ele>111.00000</ele>
        <time>2010-01-01T01:14:24Z</time>
      </trkpt>
      <trkpt lat="31.50730000" lon="34.66748000">
        <ele>110.00000</ele>
        <time>2010-01-01T01:14:37Z</time>
      </trkpt>
      <trkpt lat="31.50720000" lon="34.66726000">
        <ele>109.00000</ele>
        <time>2010-01-01T01:14:46Z</time>
      </trkpt>
      <trkpt lat="31.50703000" lon="34.66702000">
        <ele>108.00000</ele>
        <time>2010-01-01T01:14:57Z</time>
      </trkpt>
      <trkpt lat="31.50698000" lon="34.66666000">
        <ele>108.00000</ele>
        <time>2010-01-01T01:15:09Z</time>
      </trkpt>
      <trkpt lat="31.50689000" lon="34.66634000">
        <ele>106.00000</ele>
        <time>2010-01-01T01:15:20Z</time>
      </trkpt>
      <trkpt lat="31.50681000" lon="34.66587000">
        <ele>106.00000</ele>
        <time>2010-01-01T01:15:37Z</time>
      </trkpt>
      <trkpt lat="31.50688000" lon="34.66526000">
        <ele>106.00000</ele>
        <time>2010-01-01T01:15:58Z</time>
      </trkpt>
      <trkpt lat="31.50709000" lon="34.66497000">
        <ele>107.00000</ele>
        <time>2010-01-01T01:16:11Z</time>
      </trkpt>
      <trkpt lat="31.50775000" lon="34.66495000">
        <ele>108.00000</ele>
        <time>2010-01-01T01:16:37Z</time>
      </trkpt>
      <trkpt lat="31.50824000" lon="34.66480000">
        <ele>107.00000</ele>
        <time>2010-01-01T01:16:58Z</time>
      </trkpt>
      <trkpt lat="31.50863000" lon="34.66469000">
        <ele>103.00000</ele>
        <time>2010-01-01T01:17:14Z</time>
      </trkpt>
      <trkpt lat="31.50863000" lon="34.66468000">
        <ele>103.00000</ele>
        <time>2010-01-01T01:17:14Z</time>
      </trkpt>
      <trkpt lat="31.50861000" lon="34.66454000">
        <ele>103.00000</ele>
        <time>2010-01-01T01:17:19Z</time>
      </trkpt>
      <trkpt lat="31.50865000" lon="34.66409000">
        <ele>104.00000</ele>
        <time>2010-01-01T01:17:34Z</time>
      </trkpt>
      <trkpt lat="31.50878000" lon="34.66345000">
        <ele>108.00000</ele>
        <time>2010-01-01T01:17:57Z</time>
      </trkpt>
      <trkpt lat="31.50900000" lon="34.66320000">
        <ele>108.00000</ele>
        <time>2010-01-01T01:18:09Z</time>
      </trkpt>
      <trkpt lat="31.50907000" lon="34.66294000">
        <ele>106.00000</ele>
        <time>2010-01-01T01:18:18Z</time>
      </trkpt>
      <trkpt lat="31.50908000" lon="34.66269000">
        <ele>105.00000</ele>
        <time>2010-01-01T01:18:27Z</time>
      </trkpt>
      <trkpt lat="31.50896000" lon="34.66203000">
        <ele>105.00000</ele>
        <time>2010-01-01T01:18:50Z</time>
      </trkpt>
      <trkpt lat="31.50895000" lon="34.66183000">
        <ele>105.00000</ele>
        <time>2010-01-01T01:18:57Z</time>
      </trkpt>
      <trkpt lat="31.50902000" lon="34.66157000">
        <ele>105.00000</ele>
        <time>2010-01-01T01:19:06Z</time>
      </trkpt>
      <trkpt lat="31.50953000" lon="34.66072000">
        <ele>104.00000</ele>
        <time>2010-01-01T01:19:41Z</time>
      </trkpt>
      <trkpt lat="31.50986000" lon="34.65971000">
        <ele>99.000000</ele>
        <time>2010-01-01T01:20:18Z</time>
      </trkpt>
      <trkpt lat="31.50999000" lon="34.65832000">
        <ele>101.00000</ele>
        <time>2010-01-01T01:21:06Z</time>
      </trkpt>
      <trkpt lat="31.50990000" lon="34.65799000">
        <ele>100.00000</ele>
        <time>2010-01-01T01:21:18Z</time>
      </trkpt>
      <trkpt lat="31.50982000" lon="34.65781000">
        <ele>100.00000</ele>
        <time>2010-01-01T01:21:25Z</time>
      </trkpt>
      <trkpt lat="31.50968000" lon="34.65768000">
        <ele>99.000000</ele>
        <time>2010-01-01T01:21:32Z</time>
      </trkpt>
      <trkpt lat="31.50955000" lon="34.65746000">
        <ele>99.000000</ele>
        <time>2010-01-01T01:21:41Z</time>
      </trkpt>
      <trkpt lat="31.50964000" lon="34.65640000">
        <ele>99.000000</ele>
        <time>2010-01-01T01:22:17Z</time>
      </trkpt>
      <trkpt lat="31.50964000" lon="34.65529000">
        <ele>98.000000</ele>
        <time>2010-01-01T01:22:55Z</time>
      </trkpt>
      <trkpt lat="31.50958000" lon="34.65486000">
        <ele>98.000000</ele>
        <time>2010-01-01T01:23:10Z</time>
      </trkpt>
      <trkpt lat="31.50958000" lon="34.65416000">
        <ele>99.000000</ele>
        <time>2010-01-01T01:23:34Z</time>
      </trkpt>
      <trkpt lat="31.50980000" lon="34.65340000">
        <ele>96.000000</ele>
        <time>2010-01-01T01:24:01Z</time>
      </trkpt>
      <trkpt lat="31.50988000" lon="34.65296000">
        <ele>96.000000</ele>
        <time>2010-01-01T01:24:17Z</time>
      </trkpt>
      <trkpt lat="31.50991000" lon="34.65252000">
        <ele>96.000000</ele>
        <time>2010-01-01T01:24:32Z</time>
      </trkpt>
      <trkpt lat="31.51007000" lon="34.65217000">
        <ele>99.000000</ele>
        <time>2010-01-01T01:24:45Z</time>
      </trkpt>
      <trkpt lat="31.51018000" lon="34.65200000">
        <ele>100.00000</ele>
        <time>2010-01-01T01:24:53Z</time>
      </trkpt>
      <trkpt lat="31.51030000" lon="34.65187000">
        <ele>100.00000</ele>
        <time>2010-01-01T01:24:59Z</time>
      </trkpt>
      <trkpt lat="31.51090000" lon="34.65190000">
        <ele>95.000000</ele>
        <time>2010-01-01T01:25:23Z</time>
      </trkpt>
      <trkpt lat="31.51134000" lon="34.65132000">
        <ele>96.000000</ele>
        <time>2010-01-01T01:25:50Z</time>
      </trkpt>
      <trkpt lat="31.51143000" lon="34.65037000">
        <ele>95.000000</ele>
        <time>2010-01-01T01:26:22Z</time>
      </trkpt>
      <trkpt lat="31.51158000" lon="34.64972000">
        <ele>93.000000</ele>
        <time>2010-01-01T01:26:45Z</time>
      </trkpt>
      <trkpt lat="31.51153690" lon="34.64959140">
        <ele>93.000000</ele>
        <time>2010-01-01T01:26:50Z</time>
      </trkpt>
      <trkpt lat="31.51149580" lon="34.64944120">
        <ele>94.000000</ele>
        <time>2010-01-01T01:26:56Z</time>
      </trkpt>
      <trkpt lat="31.51097900" lon="34.64910320">
        <ele>96.000000</ele>
        <time>2010-01-01T01:27:19Z</time>
      </trkpt>
      <trkpt lat="31.51118930" lon="34.64851850">
        <ele>97.000000</ele>
        <time>2010-01-01T01:27:41Z</time>
      </trkpt>
      <trkpt lat="31.51103840" lon="34.64843270">
        <ele>97.000000</ele>
        <time>2010-01-01T01:27:48Z</time>
      </trkpt>
      <trkpt lat="31.51020610" lon="34.64821810">
        <ele>96.000000</ele>
        <time>2010-01-01T01:28:22Z</time>
      </trkpt>
      <trkpt lat="31.51009630" lon="34.64821810">
        <ele>96.000000</ele>
        <time>2010-01-01T01:28:26Z</time>
      </trkpt>
    </trkseg>
  </trk>
</gpx>

